When you browse on this site, cookies collect data to enhance your experience and personalize the content and advertising you see.
Visit our Privacy Policy to learn more. By continuing to use the site, you agree to this use of cookies and data.

Meteo pe oră la Dzialy

Astăzi, 28 Septembrie, Luni

Timp Temperatura Precipitaţii Vânt Presiune Umiditate
00:00 +9°C° 0 mm 3 m/s 743 mmHg 77%
01:00 +8°C° 0 mm 3 m/s 743 mmHg 78%
02:00 +8°C° 0 mm 3 m/s 743 mmHg 78%
03:00 +8°C° 0 mm 3 m/s 743 mmHg 78%
04:00 +8°C° 0 mm 3 m/s 743 mmHg 77%
05:00 +8°C° 0 mm 3 m/s 743 mmHg 76%
06:00 +9°C° 0 mm 3 m/s 744 mmHg 74%
07:00 +8°C° 0 mm 4 m/s 744 mmHg 71%
08:00 +10°C° 0 mm 4 m/s 744 mmHg 68%
09:00 +12°C° 0 mm 4 m/s 744 mmHg 65%
10:00 +13°C° 0 mm 4 m/s 744 mmHg 61%
11:00 +12°C° 0.1 mm 4 m/s 744 mmHg 65%
12:00 +12°C° 0.1 mm 3 m/s 744 mmHg 68%
13:00 +12°C° 0.1 mm 3 m/s 743 mmHg 71%
14:00 +12°C° 0.2 mm 3 m/s 743 mmHg 72%
15:00 +12°C° 0.2 mm 3 m/s 743 mmHg 73%
16:00 +13°C° 0.2 mm 3 m/s 743 mmHg 74%
17:00 +12°C° 0.2 mm 3 m/s 743 mmHg 77%
18:00 +12°C° 0.2 mm 3 m/s 743 mmHg 79%
19:00 +13°C° 0.2 mm 2 m/s 743 mmHg 81%
20:00 +12°C° 0.1 mm 3 m/s 743 mmHg 83%
21:00 +12°C° 0.1 mm 3 m/s 743 mmHg 85%
22:00 +12°C° 0.1 mm 3 m/s 743 mmHg 86%
23:00 +13°C° 0.5 mm 2 m/s 743 mmHg 89%

Mâine, 29 Septembrie, Marţi

Timp Temperatura Precipitaţii Vânt Presiune Umiditate
00:00 +13°C° 0.5 mm 2 m/s 743 mmHg 92%
01:00 +13°C° 0.5 mm 2 m/s 743 mmHg 94%
02:00 +13°C° 0.3 mm 2 m/s 743 mmHg 94%
03:00 +13°C° 0.3 mm 2 m/s 743 mmHg 94%
04:00 +13°C° 0.3 mm 2 m/s 742 mmHg 94%
05:00 +13°C° 0.2 mm 2 m/s 742 mmHg 93%
06:00 +13°C° 0.2 mm 2 m/s 743 mmHg 92%
07:00 +13°C° 0.2 mm 2 m/s 743 mmHg 91%
08:00 +13°C° 0.1 mm 2 m/s 743 mmHg 89%
09:00 +13°C° 0.1 mm 2 m/s 743 mmHg 87%
10:00 +14°C° 0.1 mm 2 m/s 743 mmHg 85%
11:00 +14°C° 0.5 mm 2 m/s 743 mmHg 86%
12:00 +14°C° 0.5 mm 2 m/s 743 mmHg 86%
13:00 +13°C° 0.5 mm 1 m/s 743 mmHg 86%
14:00 +13°C° 0.5 mm 2 m/s 743 mmHg 87%
15:00 +13°C° 0.5 mm 2 m/s 743 mmHg 88%
16:00 +13°C° 0.5 mm 2 m/s 743 mmHg 89%
17:00 +13°C° 0.5 mm 2 m/s 744 mmHg 90%
18:00 +13°C° 0.5 mm 2 m/s 744 mmHg 92%
19:00 +13°C° 0.5 mm 2 m/s 744 mmHg 93%
20:00 +12°C° 0.2 mm 3 m/s 744 mmHg 93%
21:00 +12°C° 0.2 mm 3 m/s 744 mmHg 94%
22:00 +12°C° 0.2 mm 3 m/s 744 mmHg 94%
23:00 +12°C° 0.1 mm 3 m/s 744 mmHg 94%

Poimâine, 30 Septembrie, Miercuri

Timp Temperatura Precipitaţii Vânt Presiune Umiditate
00:00 +12°C° 0.1 mm 3 m/s 744 mmHg 94%
01:00 +12°C° 0.1 mm 3 m/s 744 mmHg 94%
02:00 +12°C° 0 mm 3 m/s 744 mmHg 93%
03:00 +12°C° 0 mm 3 m/s 744 mmHg 92%
04:00 +12°C° 0 mm 3 m/s 743 mmHg 92%
05:00 +12°C° 0.1 mm 3 m/s 744 mmHg 91%
06:00 +12°C° 0.1 mm 3 m/s 744 mmHg 90%
07:00 +12°C° 0.1 mm 3 m/s 744 mmHg 89%
08:00 +13°C° 0 mm 3 m/s 744 mmHg 85%
09:00 +13°C° 0 mm 3 m/s 744 mmHg 80%
10:00 +14°C° 0 mm 4 m/s 743 mmHg 76%
11:00 +14°C° 0.2 mm 4 m/s 743 mmHg 76%
12:00 +14°C° 0.2 mm 3 m/s 743 mmHg 76%
13:00 +14°C° 0.2 mm 3 m/s 742 mmHg 76%
14:00 +14°C° 0.3 mm 3 m/s 742 mmHg 79%
15:00 +14°C° 0.3 mm 3 m/s 742 mmHg 81%
16:00 +14°C° 0.3 mm 3 m/s 742 mmHg 84%
17:00 +14°C° 0.2 mm 3 m/s 742 mmHg 85%
18:00 +14°C° 0.2 mm 3 m/s 742 mmHg 85%
19:00 +14°C° 0.2 mm 3 m/s 742 mmHg 86%
20:00 +14°C° 0.1 mm 3 m/s 742 mmHg 87%
21:00 +14°C° 0.1 mm 3 m/s 742 mmHg 87%
22:00 +13°C° 0.1 mm 3 m/s 741 mmHg 87%
23:00 +13°C° 0 mm 3 m/s 741 mmHg 89%

1 Octombrie, Joi

Timp Temperatura Precipitaţii Vânt Presiune Umiditate
00:00 +13°C° 0 mm 3 m/s 741 mmHg 90%
01:00 +12°C° 0 mm 3 m/s 741 mmHg 92%
02:00 +12°C° 0 mm 3 m/s 740 mmHg 92%
03:00 +13°C° 0 mm 2 m/s 740 mmHg 93%
04:00 +12°C° 0 mm 2 m/s 740 mmHg 94%
05:00 +12°C° 0 mm 2 m/s 740 mmHg 93%
06:00 +12°C° 0 mm 2 m/s 740 mmHg 92%
07:00 +12°C° 0 mm 2 m/s 740 mmHg 92%
08:00 +13°C° 0 mm 2 m/s 740 mmHg 85%
09:00 +14°C° 0 mm 2 m/s 739 mmHg 78%
10:00 +16°C° 0 mm 3 m/s 739 mmHg 71%
11:00 +17°C° 0 mm 3 m/s 739 mmHg 67%
12:00 +18°C° 0 mm 3 m/s 739 mmHg 62%
13:00 +19°C° 0 mm 3 m/s 739 mmHg 58%
14:00 +18°C° 0 mm 3 m/s 739 mmHg 60%
15:00 +18°C° 0 mm 3 m/s 738 mmHg 62%
16:00 +18°C° 0 mm 4 m/s 738 mmHg 64%
17:00 +16°C° 0 mm 3 m/s 739 mmHg 67%
18:00 +14°C° 0 mm 3 m/s 739 mmHg 70%
19:00 +13°C° 0 mm 3 m/s 739 mmHg 73%
20:00 +13°C° 0 mm 2 m/s 739 mmHg 76%
21:00 +13°C° 0 mm 2 m/s 739 mmHg 79%
22:00 +12°C° 0 mm 1 m/s 739 mmHg 82%
23:00 +12°C° 0 mm 1 m/s 739 mmHg 83%

2 Octombrie, Vineri

Timp Temperatura Precipitaţii Vânt Presiune Umiditate
00:00 +12°C° 0 mm 1 m/s 739 mmHg 85%
01:00 +12°C° 0 mm 1 m/s 739 mmHg 86%
02:00 +11°C° 0 mm 1 m/s 739 mmHg 89%
03:00 +11°C° 0 mm 1 m/s 739 mmHg 91%
04:00 +11°C° 0 mm 1 m/s 739 mmHg 93%
05:00 +10°C° 0 mm 2 m/s 739 mmHg 93%
06:00 +10°C° 0 mm 2 m/s 740 mmHg 94%
07:00 +10°C° 0 mm 2 m/s 740 mmHg 94%
08:00 +12°C° 0 mm 3 m/s 740 mmHg 87%
09:00 +14°C° 0 mm 3 m/s 740 mmHg 81%
10:00 +15°C° 0 mm 4 m/s 740 mmHg 75%
11:00 +17°C° 0 mm 4 m/s 740 mmHg 71%
12:00 +17°C° 0 mm 4 m/s 740 mmHg 68%
13:00 +18°C° 0 mm 4 m/s 740 mmHg 65%
14:00 +18°C° 0 mm 4 m/s 740 mmHg 66%
15:00 +18°C° 0 mm 4 m/s 740 mmHg 67%
16:00 +17°C° 0 mm 4 m/s 740 mmHg 68%
17:00 +15°C° 0 mm 4 m/s 740 mmHg 72%
18:00 +14°C° 0 mm 4 m/s 740 mmHg 75%
19:00 +14°C° 0 mm 4 m/s 741 mmHg 79%
20:00 +13°C° 0 mm 4 m/s 741 mmHg 80%
21:00 +13°C° 0 mm 4 m/s 741 mmHg 81%
22:00 +12°C° 0 mm 4 m/s 741 mmHg 82%
23:00 +12°C° 0 mm 4 m/s 740 mmHg 85%

3 Octombrie, Sâmbătă

Timp Temperatura Precipitaţii Vânt Presiune Umiditate
00:00 +12°C° 0 mm 4 m/s 740 mmHg 87%
01:00 +12°C° 0 mm 5 m/s 740 mmHg 89%
02:00 +10°C° 0 mm 5 m/s 740 mmHg 89%
03:00 +10°C° 0 mm 5 m/s 739 mmHg 89%
04:00 +10°C° 0 mm 5 m/s 739 mmHg 89%
05:00 +12°C° 0 mm 5 m/s 739 mmHg 86%
06:00 +11°C° 0 mm 6 m/s 739 mmHg 84%
07:00 +13°C° 0 mm 6 m/s 739 mmHg 82%
08:00 +12°C° 0 mm 7 m/s 739 mmHg 81%
09:00 +14°C° 0 mm 7 m/s 739 mmHg 81%
10:00 +15°C° 0 mm 7 m/s 739 mmHg 80%
11:00 +16°C° 0 mm 7 m/s 739 mmHg 77%
12:00 +17°C° 0 mm 7 m/s 739 mmHg 73%
13:00 +19°C° 0 mm 6 m/s 739 mmHg 70%
14:00 +19°C° 0 mm 6 m/s 739 mmHg 70%
15:00 +19°C° 0 mm 5 m/s 739 mmHg 71%
16:00 +19°C° 0 mm 5 m/s 739 mmHg 71%
17:00 +19°C° 0 mm 5 m/s 739 mmHg 72%
18:00 +19°C° 0 mm 6 m/s 739 mmHg 72%
19:00 +17°C° 0 mm 6 m/s 739 mmHg 72%
20:00 +17°C° 0 mm 6 m/s 739 mmHg 73%
21:00 +17°C° 0 mm 6 m/s 739 mmHg 73%
22:00 +16°C° 0 mm 6 m/s 739 mmHg 74%
23:00 +16°C° 0 mm 6 m/s 738 mmHg 76%
Arată mai mult